| time (UTC) | temp F | wind direction | speed knots | gust knots | rain 1hr in | rain 24hr in | rain mn in | humidity % | barometer mb |
| 20260507095443 | 51 | 92 | 3.5 | 7.0 | 0.10 | 0.48 | 0.48 | 89 | 1008.4 |
| 20260507094931 | 51 | 108 | 1.7 | 5.2 | 0.10 | 0.47 | 0.47 | 89 | 1008.4 |
| 20260507093430 | 51 | 59 | 2.6 | 7.0 | 0.07 | 0.41 | 0.41 | 89 | 1008.4 |
| 20260507092931 | 51 | 0 | 3.5 | 7.8 | 0.07 | 0.40 | 0.40 | 89 | 1008.3 |
| 20260507092439 | 51 | 46 | 3.5 | 7.8 | 0.09 | 0.39 | 0.39 | 89 | 1008.3 |
| 20260507091931 | 51 | 66 | 3.5 | 7.0 | 0.07 | 0.38 | 0.38 | 89 | 1008.2 |
| 20260507091430 | 52 | 52 | 3.5 | 8.7 | 0.07 | 0.38 | 0.38 | 89 | 1008.0 |
| 20260507090931 | 52 | 50 | 3.5 | 8.7 | 0.07 | 0.38 | 0.38 | 89 | 1008.0 |
| 20260507090430 | 52 | 55 | 3.5 | 7.0 | 0.08 | 0.38 | 0.38 | 89 | 1007.8 |
| 20260507085931 | 52 | 62 | 3.5 | 8.7 | 0.08 | 0.38 | 0.38 | 89 | 1007.7 |
| 20260507085430 | 52 | 74 | 3.5 | 8.7 | 0.09 | 0.38 | 0.38 | 89 | 1007.6 |
| 20260507084930 | 52 | 84 | 2.6 | 7.0 | 0.08 | 0.37 | 0.37 | 89 | 1007.7 |
| 20260507084430 | 52 | 83 | 2.6 | 7.0 | 0.09 | 0.37 | 0.36 | 89 | 1007.6 |
| 20260507083931 | 51 | 78 | 2.6 | 5.2 | 0.07 | 0.35 | 0.35 | 89 | 1007.6 |
| 20260507083430 | 52 | 76 | 1.7 | 5.2 | 0.06 | 0.34 | 0.34 | 89 | 1007.5 |
| 20260507082429 | 51 | 75 | 2.6 | 6.1 | 0.02 | 0.31 | 0.31 | 89 | 1007.4 |
| 20260507081930 | 52 | 63 | 2.6 | 5.2 | 0.02 | 0.31 | 0.31 | 89 | 1007.4 |
| 20260507080932 | 52 | 55 | 1.7 | 5.2 | 0.02 | 0.31 | 0.30 | 89 | 1007.3 |
| 20260507080430 | 52 | 68 | 1.7 | 5.2 | 0.02 | 0.30 | 0.30 | 89 | 1007.2 |
| 20260507075430 | 52 | 86 | 2.6 | 7.0 | 0.01 | 0.30 | 0.29 | 89 | 1007.2 |
| 20260507074431 | 52 | 67 | 1.7 | 4.3 | 0.00 | 0.29 | 0.28 | 89 | 1007.1 |
| 20260507073932 | 52 | 65 | 2.6 | 7.0 | 0.00 | 0.29 | 0.28 | 89 | 1007.1 |
| 20260507073430 | 52 | 85 | 3.5 | 7.0 | 0.00 | 0.29 | 0.28 | 89 | 1007.0 |
| 20260507072933 | 52 | 42 | 2.6 | 7.0 | 0.00 | 0.29 | 0.28 | 89 | 1006.9 |
| 20260507072430 | 52 | 50 | 2.6 | 5.2 | 0.00 | 0.29 | 0.28 | 90 | 1006.9 |
| 20260507071430 | 52 | 35 | 2.6 | 7.0 | 0.00 | 0.29 | 0.28 | 90 | 1006.8 |
| 20260507070431 | 52 | 58 | 3.5 | 7.0 | 0.00 | 0.29 | 0.28 | 90 | 1006.8 |
| 20260507064932 | 53 | 20 | 1.7 | 5.2 | 0.00 | 0.29 | 0.28 | 90 | 1006.8 |
| 20260507063932 | 52 | 348 | 2.6 | 5.2 | 0.00 | 0.29 | 0.28 | 90 | 1006.6 |
| 20260507063432 | 52 | 9 | 1.7 | 5.2 | 0.00 | 0.29 | 0.28 | 90 | 1006.6 |
| 20260507061933 | 52 | 300 | 1.7 | 3.5 | 0.01 | 0.29 | 0.28 | 91 | 1006.5 |
| 20260507060946 | 52 | 250 | 0.9 | 2.6 | 0.01 | 0.29 | 0.28 | 91 | 1006.5 |
| 20260507060431 | 52 | 322 | 1.7 | 3.5 | 0.01 | 0.29 | 0.28 | 91 | 1006.4 |
| 20260507055430 | 52 | 313 | 0.9 | 2.6 | 0.02 | 0.29 | 0.28 | 91 | 1006.4 |
| 20260507054933 | 52 | 304 | 1.7 | 2.6 | 0.02 | 0.29 | 0.28 | 91 | 1006.2 |
| 20260507054430 | 52 | 300 | 1.7 | 2.6 | 0.02 | 0.29 | 0.28 | 91 | 1006.1 |
| 20260507053932 | 51 | 296 | 0.9 | 2.6 | 0.03 | 0.29 | 0.28 | 91 | 1006.1 |
| 20260507053430 | 51 | 295 | 0.0 | 0.9 | 0.03 | 0.29 | 0.28 | 91 | 1006.1 |
| 20260507051932 | 51 | 296 | 0.0 | 1.7 | 0.03 | 0.28 | 0.28 | 91 | 1006.1 |
| 20260507051430 | 51 | 296 | 0.0 | 1.7 | 0.03 | 0.28 | 0.28 | 90 | 1006.0 |
| 20260507050931 | 51 | 296 | 0.9 | 1.7 | 0.03 | 0.28 | 0.28 | 90 | 1006.0 |
| 20260507050431 | 51 | 296 | 0.0 | 0.9 | 0.03 | 0.28 | 0.28 | 90 | 1006.0 |
| 20260507045931 | 51 | 296 | 0.0 | 0.9 | 0.03 | 0.28 | 0.27 | 90 | 1006.0 |
| 20260507045430 | 51 | 296 | 0.0 | 0.9 | 0.03 | 0.28 | 0.27 | 90 | 1006.0 |
| 20260507044931 | 51 | 296 | 0.0 | 0.9 | 0.03 | 0.28 | 0.27 | 90 | 1005.8 |
| 20260507043908 | 51 | 296 | 0.0 | 1.7 | 0.03 | 0.26 | 0.25 | 90 | 1005.7 |
| 20260507043406 | 51 | 296 | 0.9 | 1.7 | 0.04 | 0.26 | 0.25 | 90 | 1005.6 |
| 20260507042905 | 51 | 296 | 0.9 | 1.7 | 0.04 | 0.25 | 0.24 | 90 | 1005.6 |
| 20260507042402 | 51 | 296 | 0.9 | 1.7 | 0.05 | 0.25 | 0.24 | 90 | 1005.7 |
| 20260507041905 | 51 | 296 | 0.0 | 1.7 | 0.06 | 0.25 | 0.24 | 90 | 1005.7 |
| 20260507041402 | 51 | 294 | 0.0 | 0.9 | 0.06 | 0.25 | 0.24 | 90 | 1005.6 |
| 20260507035905 | 51 | 294 | 0.0 | 0.9 | 0.06 | 0.24 | 0.24 | 90 | 1005.4 |
| 20260507035402 | 51 | 294 | 0.0 | 0.9 | 0.06 | 0.24 | 0.24 | 90 | 1005.6 |
| 20260507034904 | 51 | 294 | 0.0 | 1.7 | 0.06 | 0.24 | 0.23 | 90 | 1005.4 |
| 20260507033904 | 51 | 294 | 0.0 | 1.7 | 0.06 | 0.23 | 0.22 | 90 | 1005.4 |
| 20260507033402 | 51 | 295 | 0.0 | 0.0 | 0.06 | 0.22 | 0.21 | 90 | 1005.4 |
| 20260507032905 | 51 | 295 | 0.0 | 0.9 | 0.06 | 0.21 | 0.20 | 90 | 1005.4 |
| 20260507031905 | 51 | 294 | 0.9 | 2.6 | 0.06 | 0.20 | 0.19 | 90 | 1005.4 |
| 20260507031402 | 51 | 294 | 0.9 | 2.6 | 0.06 | 0.20 | 0.19 | 90 | 1005.4 |
| 20260507030904 | 51 | 294 | 0.9 | 2.6 | 0.07 | 0.20 | 0.18 | 90 | 1005.4 |
| 20260507030402 | 51 | 294 | 0.9 | 2.6 | 0.08 | 0.19 | 0.18 | 90 | 1005.3 |
| 20260507025903 | 51 | 296 | 0.9 | 2.6 | 0.08 | 0.18 | 0.17 | 90 | 1005.2 |
| 20260507025402 | 51 | 296 | 0.9 | 2.6 | 0.08 | 0.18 | 0.17 | 89 | 1005.2 |
| 20260507024402 | 51 | 40 | 0.0 | 0.9 | 0.07 | 0.17 | 0.17 | 89 | 1005.1 |
| 20260507023904 | 51 | 41 | 0.9 | 3.5 | 0.07 | 0.17 | 0.16 | 89 | 1005.1 |
| 20260507023402 | 51 | 42 | 1.7 | 3.5 | 0.06 | 0.16 | 0.15 | 89 | 1005.0 |
| 20260507022918 | 51 | 74 | 1.7 | 3.5 | 0.05 | 0.15 | 0.14 | 89 | 1005.0 |
| 20260507022402 | 51 | 53 | 0.9 | 3.5 | 0.04 | 0.14 | 0.13 | 89 | 1005.0 |
| 20260507021904 | 51 | 317 | 0.9 | 2.6 | 0.03 | 0.13 | 0.13 | 89 | 1005.0 |
| 20260507021402 | 51 | 315 | 0.9 | 2.6 | 0.04 | 0.13 | 0.12 | 89 | 1005.1 |
| 20260507020905 | 51 | 315 | 0.9 | 2.6 | 0.04 | 0.13 | 0.11 | 89 | 1005.0 |
| 20260507015402 | 51 | 315 | 0.0 | 1.7 | 0.06 | 0.10 | 0.09 | 89 | 1005.2 |
| 20260507013401 | 51 | 314 | 0.0 | 1.7 | 0.09 | 0.10 | 0.09 | 88 | 1005.1 |
| 20260507012904 | 51 | 315 | 0.0 | 1.7 | 0.09 | 0.10 | 0.09 | 88 | 1005.0 |
| 20260507012402 | 51 | 315 | 0.0 | 1.7 | 0.09 | 0.10 | 0.09 | 88 | 1005.0 |
| 20260507011904 | 51 | 314 | 0.0 | 1.7 | 0.09 | 0.10 | 0.09 | 88 | 1004.9 |
| 20260507011401 | 51 | 315 | 0.9 | 3.5 | 0.09 | 0.09 | 0.09 | 88 | 1004.9 |
| 20260507010904 | 51 | 315 | 1.7 | 3.5 | 0.08 | 0.09 | 0.08 | 88 | 1004.9 |
| 20260507010401 | 51 | 313 | 1.7 | 3.5 | 0.07 | 0.08 | 0.07 | 88 | 1004.9 |
| 20260507005904 | 51 | 294 | 1.7 | 5.2 | 0.06 | 0.07 | 0.06 | 88 | 1004.9 |
| 20260507005403 | 51 | 290 | 1.7 | 5.2 | 0.04 | 0.05 | 0.04 | 88 | 1005.0 |
| 20260507004904 | 51 | 254 | 1.7 | 3.5 | 0.03 | 0.04 | 0.02 | 88 | 1005.0 |
| 20260507003904 | 51 | 175 | 0.0 | 1.7 | 0.02 | 0.02 | 0.02 | 87 | 1004.7 |
| 20260507002905 | 51 | 175 | 0.9 | 2.6 | 0.01 | 0.02 | 0.01 | 87 | 1004.7 |
| 20260507002402 | 51 | 173 | 0.9 | 3.5 | 0.01 | 0.02 | 0.01 | 87 | 1004.7 |
| 20260507001904 | 52 | 171 | 0.9 | 5.2 | 0.00 | 0.01 | 0.00 | 87 | 1004.7 |
| 20260507001402 | 52 | 159 | 0.9 | 5.2 | 0.00 | 0.01 | 0.00 | 87 | 1004.6 |
| 20260507000405 | 52 | 140 | 1.7 | 4.3 | 0.00 | 0.01 | 0.00 | 87 | 1004.5 |
| 20260506235903 | 52 | 144 | 1.7 | 3.5 | 0.00 | 0.01 | 0.00 | 87 | 1004.5 |
| 20260506235401 | 52 | 142 | 1.7 | 4.3 | 0.00 | 0.01 | 0.00 | 87 | 1004.5 |
| 20260506234903 | 52 | 146 | 1.7 | 4.3 | 0.00 | 0.01 | 0.00 | 86 | 1004.5 |
| 20260506234402 | 52 | 128 | 0.9 | 3.5 | 0.00 | 0.01 | 0.00 | 86 | 1004.5 |
| 20260506233402 | 52 | 101 | 1.7 | 5.2 | 0.00 | 0.01 | 0.00 | 86 | 1004.3 |
| 20260506231903 | 52 | 99 | 2.6 | 6.1 | 0.00 | 0.01 | 0.00 | 86 | 1004.3 |
| 20260506230903 | 52 | 100 | 1.7 | 5.2 | 0.00 | 0.01 | 0.00 | 86 | 1004.3 |
| 20260506230403 | 52 | 124 | 0.9 | 5.2 | 0.00 | 0.01 | 0.00 | 86 | 1004.3 |
| 20260506225903 | 52 | 125 | 1.7 | 5.2 | 0.00 | 0.01 | 0.00 | 86 | 1004.3 |
| 20260506224904 | 52 | 106 | 2.6 | 5.2 | 0.00 | 0.01 | 0.00 | 86 | 1004.2 |
| 20260506223904 | 52 | 102 | 1.7 | 4.3 | 0.00 | 0.01 | 0.00 | 86 | 1004.1 |
| 20260506223402 | 52 | 59 | 1.7 | 4.3 | 0.00 | 0.01 | 0.00 | 86 | 1004.2 |
| 20260506222402 | 52 | 57 | 1.7 | 7.0 | 0.00 | 0.01 | 0.00 | 87 | 1004.2 |
| 20260506221402 | 52 | 70 | 2.6 | 7.8 | 0.00 | 0.02 | 0.00 | 87 | 1004.3 |
| 20260506220903 | 52 | 19 | 2.6 | 9.6 | 0.00 | 0.02 | 0.00 | 86 | 1004.4 |
| 20260506215903 | 52 | 49 | 4.3 | 10.4 | 0.00 | 0.05 | 0.05 | 86 | 1004.3 |
| 20260506215401 | 53 | 32 | 4.3 | 10.4 | 0.00 | 0.06 | 0.05 | 86 | 1004.2 |
| 20260506214902 | 53 | 329 | 4.3 | 11.3 | 0.00 | 0.08 | 0.05 | 86 | 1004.4 |
| 20260506214401 | 53 | 24 | 4.3 | 12.2 | 0.00 | 0.09 | 0.05 | 86 | 1004.3 |
| 20260506213902 | 53 | 19 | 3.5 | 12.2 | 0.00 | 0.11 | 0.05 | 86 | 1004.3 |
| 20260506213402 | 53 | 39 | 2.6 | 8.7 | 0.00 | 0.13 | 0.05 | 86 | 1004.3 |
| 20260506212903 | 54 | 9 | 2.6 | 7.0 | 0.00 | 0.15 | 0.05 | 86 | 1004.3 |
| 20260506211402 | 55 | 235 | 4.3 | 9.6 | 0.00 | 0.20 | 0.05 | 86 | 1004.1 |
| 20260506210903 | 55 | 296 | 5.2 | 11.3 | 0.00 | 0.22 | 0.05 | 86 | 1004.0 |
| 20260506210403 | 55 | 268 | 3.5 | 11.3 | 0.00 | 0.24 | 0.05 | 86 | 1004.0 |
| 20260506205402 | 56 | 80 | 1.7 | 6.1 | 0.00 | 0.28 | 0.05 | 86 | 1003.7 |
| 20260506204902 | 56 | 78 | 2.6 | 6.1 | 0.00 | 0.29 | 0.05 | 86 | 1003.7 |
| 20260506204401 | 56 | 82 | 3.5 | 7.0 | 0.00 | 0.30 | 0.05 | 86 | 1003.6 |
| 20260506203402 | 56 | 97 | 1.7 | 6.1 | 0.00 | 0.36 | 0.05 | 86 | 1003.8 |
| 20260506202902 | 56 | 267 | 1.7 | 4.3 | 0.00 | 0.61 | 0.05 | 86 | 1003.8 |
| 20260506202402 | 56 | 46 | 1.7 | 4.3 | 0.00 | 0.97 | 0.05 | 85 | 1003.7 |
| 20260506201901 | 56 | 44 | 0.9 | 4.3 | 0.00 | 1.06 | 0.05 | 85 | 1003.9 |
| 20260506195902 | 56 | 192 | 0.0 | 2.6 | 0.00 | 1.06 | 0.05 | 85 | 1003.4 |
| 20260506195402 | 56 | 111 | 0.0 | 0.9 | 0.00 | 1.06 | 0.05 | 84 | 1003.3 |
| 20260506194902 | 56 | 111 | 0.0 | 0.9 | 0.00 | 1.06 | 0.05 | 84 | 1003.3 |
| 20260506194402 | 56 | 111 | 0.9 | 3.5 | 0.00 | 1.06 | 0.05 | 84 | 1003.3 |
| 20260506193903 | 57 | 111 | 1.7 | 4.3 | 0.00 | 1.07 | 0.05 | 84 | 1003.3 |
| 20260506193404 | 57 | 121 | 1.7 | 7.0 | 0.00 | 1.11 | 0.05 | 84 | 1003.3 |
| 20260506192403 | 57 | 74 | 1.7 | 7.0 | 0.00 | 1.23 | 0.05 | 83 | 1003.3 |
| 20260506191902 | 57 | 43 | 0.9 | 7.0 | 0.00 | 1.23 | 0.05 | 83 | 1003.4 |
| 20260506190403 | 58 | 28 | 3.5 | 7.0 | 0.00 | 1.23 | 0.05 | 82 | 1002.8 |
| 20260506185902 | 58 | 84 | 2.6 | 7.0 | 0.00 | 1.23 | 0.05 | 82 | 1002.6 |
| 20260506185403 | 58 | 19 | 2.6 | 7.8 | 0.00 | 1.23 | 0.05 | 81 | 1002.6 |
| 20260506184902 | 58 | 74 | 2.6 | 7.8 | 0.00 | 1.23 | 0.05 | 81 | 1002.5 |
| 20260506183902 | 58 | 45 | 2.6 | 7.0 | 0.00 | 1.23 | 0.05 | 79 | 1002.4 |
| 20260506183403 | 57 | 63 | 1.7 | 7.0 | 0.00 | 1.23 | 0.05 | 79 | 1002.4 |
| 20260506182902 | 56 | 225 | 0.0 | 2.6 | 0.00 | 1.23 | 0.05 | 78 | 1002.3 |
| 20260506181417 | 57 | 225 | 0.0 | 0.0 | 0.00 | 1.23 | 0.05 | 77 | 1002.4 |
| 20260506180403 | 57 | 225 | 0.0 | 1.7 | 0.00 | 1.23 | 0.05 | 78 | 1002.4 |
| 20260506174845 | 58 | 224 | 0.0 | 0.9 | 0.00 | 1.24 | 0.05 | 76 | 1002.3 |
| 20260506174342 | 59 | 224 | 0.0 | 2.6 | 0.00 | 1.24 | 0.05 | 74 | 1002.3 |
| 20260506173832 | 60 | 224 | 0.0 | 2.6 | 0.00 | 1.24 | 0.05 | 71 | 1002.2 |
| 20260506173332 | 62 | 224 | 0.9 | 2.6 | 0.00 | 1.24 | 0.05 | 67 | 1002.2 |
| 20260506172832 | 63 | 223 | 1.7 | 3.5 | 0.00 | 1.24 | 0.05 | 64 | 1002.3 |
| 20260506171331 | 63 | 250 | 1.7 | 6.1 | 0.00 | 1.24 | 0.05 | 62 | 1002.1 |
| 20260506170831 | 64 | 239 | 2.6 | 6.1 | 0.00 | 1.24 | 0.05 | 63 | 1002.2 |
| 20260506165831 | 64 | 205 | 2.6 | 6.1 | 0.00 | 1.24 | 0.05 | 61 | 1002.0 |
| 20260506165332 | 64 | 210 | 1.7 | 4.3 | 0.00 | 1.24 | 0.05 | 62 | 1002.1 |
| 20260506164831 | 64 | 242 | 1.7 | 4.3 | 0.00 | 1.24 | 0.05 | 62 | 1002.1 |
| 20260506164331 | 64 | 250 | 2.6 | 5.2 | 0.00 | 1.24 | 0.05 | 62 | 1002.0 |
| 20260506163831 | 64 | 198 | 3.5 | 6.1 | 0.00 | 1.24 | 0.05 | 61 | 1002.1 |
| 20260506163331 | 64 | 201 | 3.5 | 6.1 | 0.00 | 1.24 | 0.05 | 61 | 1002.1 |
| 20260506162332 | 64 | 173 | 3.5 | 7.8 | 0.00 | 1.24 | 0.05 | 61 | 1002.1 |
| 20260506161831 | 64 | 208 | 2.6 | 5.2 | 0.00 | 1.24 | 0.05 | 60 | 1002.1 |
| 20260506161323 | 64 | 200 | 1.7 | 4.3 | 0.00 | 1.24 | 0.05 | 60 | 1002.2 |
| 20260506160819 | 64 | 239 | 1.7 | 4.3 | 0.00 | 1.24 | 0.05 | 60 | 1002.3 |
| 20260506160302 | 65 | 306 | 1.7 | 5.2 | 0.00 | 1.24 | 0.05 | 59 | 1002.3 |
| 20260506155803 | 65 | 216 | 2.6 | 6.1 | 0.00 | 1.24 | 0.05 | 60 | 1002.4 |
| 20260506155306 | 65 | 183 | 2.6 | 6.1 | 0.00 | 1.24 | 0.05 | 60 | 1002.4 |
| 20260506154803 | 65 | 230 | 2.6 | 6.1 | 0.00 | 1.24 | 0.05 | 59 | 1002.4 |
| 20260506154304 | 65 | 185 | 3.5 | 6.1 | 0.00 | 1.24 | 0.05 | 58 | 1002.5 |
| 20260506153803 | 65 | 262 | 2.6 | 6.1 | 0.00 | 1.24 | 0.05 | 59 | 1002.7 |
| 20260506153303 | 65 | 266 | 2.6 | 6.1 | 0.00 | 1.24 | 0.05 | 58 | 1002.7 |
| 20260506151802 | 65 | 196 | 3.5 | 7.8 | 0.00 | 1.24 | 0.05 | 60 | 1002.8 |
| 20260506150802 | 64 | 245 | 3.5 | 7.8 | 0.00 | 1.24 | 0.05 | 60 | 1002.9 |
| 20260506150305 | 64 | 260 | 4.3 | 7.8 | 0.00 | 1.24 | 0.05 | 60 | 1002.8 |
| 20260506145803 | 64 | 250 | 3.5 | 7.0 | 0.00 | 1.24 | 0.05 | 60 | 1002.8 |
| 20260506144802 | 65 | 237 | 5.2 | 10.4 | 0.00 | 1.24 | 0.05 | 59 | 1002.9 |
| 20260506144303 | 65 | 243 | 4.3 | 10.4 | 0.00 | 1.24 | 0.05 | 58 | 1002.9 |
| 20260506143802 | 65 | 247 | 4.3 | 9.6 | 0.00 | 1.24 | 0.05 | 58 | 1002.7 |
| 20260506143303 | 65 | 217 | 4.3 | 10.4 | 0.00 | 1.25 | 0.05 | 59 | 1003.0 |
| 20260506142305 | 65 | 216 | 4.3 | 10.4 | 0.00 | 1.25 | 0.05 | 58 | 1002.9 |
| 20260506141801 | 65 | 225 | 5.2 | 10.4 | 0.00 | 1.25 | 0.05 | 58 | 1002.8 |
| 20260506140802 | 65 | 194 | 4.3 | 8.7 | 0.00 | 1.25 | 0.05 | 58 | 1002.9 |
| 20260506140303 | 66 | 271 | 4.3 | 9.6 | 0.00 | 1.25 | 0.05 | 59 | 1002.9 |
| 20260506135802 | 66 | 230 | 5.2 | 11.3 | 0.00 | 1.25 | 0.05 | 57 | 1003.0 |
| 20260506135305 | 66 | 214 | 5.2 | 11.3 | 0.00 | 1.25 | 0.05 | 58 | 1002.9 |
| 20260506134802 | 67 | 213 | 4.3 | 9.6 | 0.00 | 1.25 | 0.05 | 59 | 1002.9 |
| 20260506134304 | 67 | 198 | 4.3 | 8.7 | 0.00 | 1.25 | 0.05 | 61 | 1003.0 |
| 20260506133803 | 66 | 213 | 5.2 | 9.6 | 0.00 | 1.25 | 0.05 | 59 | 1003.0 |
| 20260506133303 | 66 | 211 | 5.2 | 9.6 | 0.00 | 1.25 | 0.05 | 61 | 1003.0 |
| 20260506132802 | 66 | 238 | 4.3 | 8.7 | 0.00 | 1.25 | 0.05 | 61 | 1003.0 |
| 20260506132306 | 66 | 192 | 4.3 | 8.7 | 0.00 | 1.25 | 0.05 | 62 | 1003.0 |
| 20260506131802 | 65 | 230 | 5.2 | 13.0 | 0.00 | 1.25 | 0.05 | 62 | 1003.0 |
| 20260506131304 | 65 | 244 | 6.1 | 13.0 | 0.00 | 1.25 | 0.05 | 61 | 1003.0 |
| 20260506130304 | 66 | 209 | 6.1 | 13.0 | 0.00 | 1.25 | 0.05 | 61 | 1003.2 |
| 20260506125802 | 65 | 210 | 5.2 | 13.0 | 0.00 | 1.25 | 0.05 | 62 | 1003.2 |
| 20260506125305 | 65 | 204 | 6.1 | 9.6 | 0.00 | 1.25 | 0.05 | 64 | 1003.0 |
| 20260506124802 | 65 | 187 | 6.1 | 10.4 | 0.00 | 1.25 | 0.05 | 63 | 1003.3 |
| 20260506124302 | 66 | 227 | 4.3 | 10.4 | 0.00 | 1.25 | 0.05 | 63 | 1003.4 |
| 20260506123802 | 67 | 234 | 3.5 | 9.6 | 0.00 | 1.25 | 0.05 | 63 | 1003.4 |
| 20260506123303 | 66 | 217 | 5.2 | 12.2 | 0.00 | 1.25 | 0.05 | 63 | 1003.4 |
| 20260506122802 | 65 | 223 | 6.1 | 12.2 | 0.00 | 1.25 | 0.05 | 65 | 1003.6 |
| 20260506122305 | 65 | 211 | 6.1 | 14.8 | 0.00 | 1.25 | 0.05 | 64 | 1003.6 |
| 20260506121802 | 65 | 240 | 5.2 | 14.8 | 0.00 | 1.25 | 0.05 | 63 | 1003.6 |
| 20260506121303 | 65 | 215 | 5.2 | 9.6 | 0.00 | 1.25 | 0.05 | 65 | 1003.6 |
| 20260506120803 | 64 | 201 | 6.1 | 13.0 | 0.00 | 1.25 | 0.05 | 66 | 1003.6 |
| 20260506115802 | 64 | 212 | 2.6 | 7.8 | 0.00 | 1.25 | 0.05 | 66 | 1003.6 |
| 20260506115306 | 64 | 181 | 3.5 | 10.4 | 0.00 | 1.25 | 0.05 | 68 | 1003.6 |
| 20260506114802 | 64 | 211 | 4.3 | 13.0 | 0.00 | 1.25 | 0.05 | 67 | 1003.6 |
| 20260506114303 | 64 | 242 | 4.3 | 13.0 | 0.00 | 1.25 | 0.05 | 67 | 1003.5 |
| 20260506113813 | 64 | 296 | 4.3 | 9.6 | 0.00 | 1.25 | 0.05 | 68 | 1003.5 |
| 20260506113304 | 64 | 194 | 4.3 | 9.6 | 0.00 | 1.25 | 0.05 | 66 | 1003.6 |
| 20260506112306 | 64 | 266 | 5.2 | 9.6 | 0.00 | 1.25 | 0.05 | 68 | 1003.5 |
| 20260506111802 | 64 | 210 | 5.2 | 8.7 | 0.00 | 1.25 | 0.05 | 65 | 1003.5 |
| 20260506111304 | 65 | 263 | 4.3 | 10.4 | 0.00 | 1.25 | 0.05 | 65 | 1003.6 |
| 20260506110802 | 64 | 271 | 4.3 | 12.2 | 0.00 | 1.25 | 0.05 | 67 | 1003.6 |
| 20260506105802 | 64 | 264 | 6.1 | 13.9 | 0.00 | 1.25 | 0.05 | 66 | 1003.7 |
| 20260506105305 | 64 | 222 | 6.1 | 13.9 | 0.00 | 1.25 | 0.05 | 67 | 1003.7 |
| 20260506103304 | 65 | 208 | 6.1 | 14.8 | 0.00 | 1.25 | 0.05 | 64 | 1003.7 |
| 20260506102305 | 63 | 209 | 7.0 | 15.6 | 0.00 | 1.25 | 0.05 | 66 | 1003.7 |
| 20260506101801 | 63 | 265 | 7.8 | 15.6 | 0.00 | 1.25 | 0.05 | 66 | 1003.8 |
| 20260506101303 | 62 | 245 | 7.8 | 14.8 | 0.00 | 1.25 | 0.05 | 68 | 1003.7 |